Location: Vancouver
(49.2500°N, 123.1330°W)
Time: 16:29:07
(UTC-07:00)

ISS - All Passes

Search period start: 20 April 2014 00:00
Search period end: 30 April 2014 00:00
Orbit: 414 x 419 km, 51.6° (Epoch: 20 April)

Date Brightness Start Highest point End Pass type
(mag) Time Alt. Az. Time Alt. Az. Time Alt. Az.
20 Apr - 15:08:31 10° S 15:10:30 15° SE 15:12:29 10° E daylight
20 Apr - 16:43:25 10° WSW 16:46:45 67° SSE 16:50:06 10° ENE daylight
20 Apr - 18:20:16 10° W 18:23:35 56° N 18:26:54 10° ENE daylight
20 Apr - 19:57:11 10° WNW 20:00:33 74° NNE 20:03:55 10° ESE daylight
20 Apr - 21:34:06 10° W 21:37:07 31° SW 21:40:08 10° SSE visible
21 Apr - 15:55:03 10° SW 15:58:16 46° SSE 16:01:30 10° ENE daylight
21 Apr - 17:31:39 10° W 17:34:59 62° N 17:38:19 10° ENE daylight
21 Apr - 19:08:37 10° WNW 19:11:58 62° N 19:15:18 10° E daylight
21 Apr - 20:45:26 10° WNW 20:48:40 46° SSW 20:51:54 10° SE visible
22 Apr - 15:06:46 10° SSW 15:09:46 31° SE 15:12:47 10° E daylight
22 Apr - 16:42:59 10° WSW 16:46:20 74° NNW 16:49:41 10° ENE daylight
22 Apr - 18:19:58 10° WNW 18:23:17 56° N 18:26:36 10° E daylight
22 Apr - 19:56:46 10° WNW 20:00:06 67° SSW 20:03:26 10° ESE daylight
22 Apr - 21:34:21 10° W 21:36:21 15° SW 21:38:21 10° S visible
23 Apr - 14:18:39 10° SSW 14:21:15 21° SE 14:23:51 10° E daylight
23 Apr - 15:54:17 10° WSW 15:57:38 86° SSE 16:01:00 10° ENE daylight
23 Apr - 17:31:14 10° W 17:34:32 54° N 17:37:50 10° ENE daylight
23 Apr - 19:08:04 10° WNW 19:11:26 90° SSW 19:14:47 10° ESE daylight
23 Apr - 20:45:09 10° W 20:47:51 23° SW 20:50:32 10° SSE visible
24 Apr - 13:30:55 10° S 13:32:42 14° SE 13:34:30 10° ESE daylight
24 Apr - 15:05:36 10° SW 15:08:54 63° SSE 15:12:14 10° ENE daylight
24 Apr - 16:42:24 10° W 16:45:42 56° N 16:49:01 10° ENE daylight
24 Apr - 18:19:18 10° WNW 18:22:39 72° NNE 18:26:00 10° E daylight
24 Apr - 19:56:10 10° W 19:59:14 33° SSW 20:02:17 10° SSE daylight
25 Apr - 14:16:58 10° SW 14:20:09 43° SSE 14:23:21 10° ENE daylight
25 Apr - 15:53:30 10° W 15:56:49 64° N 16:00:09 10° ENE daylight
25 Apr - 17:30:27 10° WNW 17:33:47 60° N 17:37:06 10° E daylight
25 Apr - 19:07:14 10° WNW 19:10:30 49° SSW 19:13:44 10° SE daylight
25 Apr - 20:46:04 10° SW 20:46:34 10° SW 20:47:04 10° SW daylight
26 Apr - 13:28:27 10° SSW 13:31:23 29° SE 13:34:20 10° E daylight
26 Apr - 15:04:33 10° WSW 15:07:54 77° NNW 15:11:15 10° ENE daylight
26 Apr - 16:41:31 10° WNW 16:44:49 55° N 16:48:07 10° E daylight
26 Apr - 18:18:18 10° WNW 18:21:39 71° SSW 18:24:58 10° ESE daylight
26 Apr - 19:55:45 10° W 19:57:54 16° SW 20:00:04 10° S daylight
27 Apr - 12:40:08 10° S 12:42:36 19° SE 12:45:04 10° E daylight
27 Apr - 14:15:36 10° WSW 14:18:56 82° SSE 14:22:17 10° ENE daylight
27 Apr - 15:52:30 10° W 15:55:47 54° N 15:59:05 10° ENE daylight
27 Apr - 17:29:20 10° WNW 17:32:41 86° NNE 17:36:02 10° ESE daylight
27 Apr - 19:06:21 10° W 19:09:07 24° SW 19:11:53 10° SSE daylight
28 Apr - 11:52:17 10° SSE 11:53:47 13° SE 11:55:18 10° ESE daylight
28 Apr - 13:26:39 10° SW 13:29:56 58° SSE 13:33:14 10° ENE daylight
28 Apr - 15:03:23 10° W 15:06:41 57° N 15:10:00 10° ENE daylight
28 Apr - 16:40:17 10° WNW 16:43:37 69° NNE 16:46:57 10° E daylight
28 Apr - 18:17:06 10° W 18:20:13 36° SSW 18:23:18 10° SE daylight
29 Apr - 12:37:47 10° SW 12:40:55 39° SSE 12:44:04 10° ENE daylight
29 Apr - 14:14:12 10° W 14:17:32 66° NNW 14:20:52 10° ENE daylight
29 Apr - 15:51:09 10° WNW 15:54:28 59° N 15:57:46 10° E daylight
29 Apr - 17:27:55 10° WNW 17:31:11 54° SSW 17:34:27 10° SE daylight
29 Apr - 19:06:08 10° WSW 19:07:17 11° SW 19:08:26 10° SSW daylight
